User: anonymous   Login
Location: Melara
(45.0500°N, 11.1833°E)
Time: 20:45:10
(UTC+00:00)
Language:

Cosmos 1544 Rocket - Orbit

View from above orbital plane
View from above orbital plane
View from above satellite
View from above satellite

Ground track
Ground track

The orbit data is extracted from the following two-line orbital elements,

1 14820U 84027B   22229.50778363  .00000299  00000-0  33082-4 0  9992
2 14820  82.5431  22.1044 0017541 316.0784  43.9036 14.83861578 54690
Epoch (UTC): 17 August 2022 12:11:12
Eccentricity: 0.0017541
inclination: 82.5431°
perigee height: 605 km
apogee height: 629 km
right ascension of ascending node: 22.1044°
argument of perigee: 316.0784°
revolutions per day: 14.83861578
mean anomaly at epoch: 43.9036°
orbit number at epoch: 5469

The dashed part of the orbit path shows where the satellite is in the earth's shadow,  

DLR